Regional Weather Roundup
Issued by NWS Mt. Holly, NJ

Home | Current Version | Previous Version | Text Only | Print | Product List | Glossary On
Versions: 1 2 3 4 5 6 7 8 9 10 11 12 13 14 15 16 17 18 19 20 21 22 23 24 25 26 27 28 29 30 31 32 33 34 35 36 37 38 39 40 41 42 43 44 45 46 47 48 49 50
000
ASUS41 KPHI 272110
RWRPHI

REGIONAL WEATHER ROUNDUP
NATIONAL WEATHER SERVICE MOUNT HOLLY NJ
500 PM EDT WED AUG 27 2014

NOTE:  "FAIR" INDICATES FEW OR NO CLOUDS BELOW 12,000 FEET WITH NO
SIGNIFICANT WEATHER AND/OR OBSTRUCTIONS TO VISIBILITY.

 * = STATION DOES NOT REPORT PRECIPITATION (E.G. RAIN, SNOW, ETC.)
        OR FOG.

NJZ015>026-272200-
SOUTHERN NEW JERSEY

CITY           SKY/WX    TMP DP  RH WIND       PRES   REMARKS
POMONA         SUNNY     83  65  54 SE10      29.92F
RIO GRANDE*    SUNNY     84  59  42 CALM      29.95F
MILLVILLE      SUNNY     86  62  44 W7        29.93F
WRIGHTSTOWN    SUNNY     88  65  47 SW8       29.89F HX  90
MOUNT HOLLY    SUNNY     88  64  44 VRB3      29.91F
TRENTON        SUNNY     88  64  44 W5        29.90F

$$
NJZ001>014-272200-
NORTHERN NEW JERSEY

CITY           SKY/WX    TMP DP  RH WIND       PRES   REMARKS
SUSSEX         SUNNY     89  70  53 SW7       29.90F HX  94
ANDOVER*         N/A     86  68  54 SW7       29.91F
MORRISTOWN     MOSUNNY   90  66  45 W8        29.90F HX  92
NEWARK         MOSUNNY   91  63  39 SW12      29.88F HX  92
TETERBORO      MOSUNNY   92  64  39 SW9       29.86F HX  93
CALDWELL       SUNNY     89  66  46 SW8       29.89S HX  91
SOMERVILLE     SUNNY     89  66  46 CALM      29.88S HX  91
ALLAIRE*       SUNNY     84  64  51 S7        29.91F
TOMS RIVER*    SUNNY     90  61  37 W6        29.91F

$$
PAZ043-044-047-054-055-060>062-066>071-272200-
EASTERN PENNSYLVANIA

CITY           SKY/WX    TMP DP  RH WIND       PRES   REMARKS
PHILADELPHIA   SUNNY     89  64  43 SW8       29.91F HX  90
NORTH PHILA    SUNNY     91  63  39 CALM      29.92F HX  92
BLUE BELL      MOSUNNY   88  68  51 W3        29.91F HX  91
DOYLESTOWN     SUNNY     88  66  48 W8        29.91S HX  90
QUAKERTOWN*    SUNNY     88  68  51 MISG      29.94S HX  91
POTTSTOWN      SUNNY     87  66  49 VRB6      29.94S
LANCASTER      SUNNY     87  66  49 W9        29.93F
COATESVILLE    SUNNY     84  68  58 SW5       29.96S
READING        SUNNY     88  68  51 W10       29.91F HX  91
ALLENTOWN      SUNNY     88  69  53 SW10      29.92S HX  92
MOUNT POCONO   MOSUNNY   82  65  56 NW7       29.99S
HAZLETON       SUNNY     82  63  51 W7        30.01F
WILKES BARRE   MOSUNNY   86  67  52 W5        29.93F

$$
DEZALL-MDZ008-012-015-019-020-272200-
DELAWARE AND EASTERN MARYLAND

CITY           SKY/WX    TMP DP  RH WIND       PRES   REMARKS
WILMINGTON     SUNNY     86  66  51 SW7       29.93F
DOVER          SUNNY     85  66  54 E7        29.93S
GEORGETOWN     SUNNY     87  61  41 VRB5      29.94F
EASTON         SUNNY     88  61  40 NW6       29.98F
PATUXENT       MOSUNNY   85  62  46 VRB3      29.95F
OCEAN CITY     SUNNY     77  67  71 SE6       29.95F
WALLOPS ISLAND SUNNY     81  67  62 S8        29.96S
CAMBRIDGE      SUNNY     86  57  37 W5        29.94S
SALISBURY      SUNNY     88  61  40 N5        29.94F

$$
PAZ001-021-NYZ056-072-MDZ011-DCZ001-272200-
OTHER NEARBY LOCATIONS

CITY           SKY/WX    TMP DP  RH WIND       PRES   REMARKS
HARRISBURG     MOSUNNY   88  72  58 W6        29.92F HX  94
STATE COLLEGE  MOSUNNY   86  68  54 NW8       29.97F
WILLIAMSPORT   MOSUNNY   90  67  46 W6        29.90F HX  93
BINGHAMTON     CLOUDY    74  66  76 N10       30.00S
NEW YORK CITY  SUNNY     87  63  44 S8        29.91F
BALTIMORE      MOSUNNY   88  63  43 W7        29.93F
WASHINGTON DC  MOSUNNY   88  65  46 S8        29.95F HX  90

$$


USA.gov is the U.S. government's official web portal to all federal, state and local government web resources and services.